Ithaca, NY

8:12 AM EDT on August 23, 2017 (GMT -0400)
Tompkins County

Weather History for KITH - July, 2014

Change the Weather History Date:

Sunday, July 20, 2014

  Actual Average Record
Temperature  
Mean Temperature 70 °F -  
Max Temperature 79 °F 81 °F 95 °F (1934)
Min Temperature 61 °F 60 °F 41 °F (1965)
Cooling Degree Days 6    
Growing Degree Days 20 (Base 50)    
Moisture  
Dew Point 58 °F    
Average Humidity 69    
Maximum Humidity 93    
Minimum Humidity 42    
Precipitation  
Precipitation 0.00 in - - ()
Sea Level Pressure  
Sea Level Pressure 30.15 in    
Wind  
Wind Speed 5 mph (SE)    
Max Wind Speed 10 mph    
Max Gust Speed -    
Visibility 10 miles    
Events Rain    
Averages and records for this station are not official NWS values.
T = Trace of Precipitation, MM = Missing Value Source: NWS Daily Summary

Daily Weather History Graph

Daily Weather History Graph

Search for Another Location

Airport or City:

Trip Planner

Search our weather history database for the weather conditions in past years. The results will help you decide how hot, cold, wet, or windy it might be!

Date:

Astronomy

Jul. 20, 2014 Rise Set
Actual Time 5:46 AM EDT 8:37 PM EDT
Civil Twilight 5:13 AM EDT 9:10 PM EDT
Nautical Twilight 4:31 AM EDT 9:52 PM EDT
Astronomical Twilight 3:42 AM EDT 10:40 PM EDT
Moon 12:59 AM EDT (7/20) 3:16 PM EDT (7/20)
Length of Visible Light 15h 57m
Length of Day
14h 51m
Waning Crescent, 34% of the Moon is Illuminated
Jul 20
Waning Crescent
Jul 26
New
Aug 3
First Quarter
Aug 10
Full
Aug 17
Last Quarter

Hourly Weather History & Observations

Time (EDT) Temp. Dew Point Humidity Pressure Visibility Wind Dir Wind Speed Gust Speed Precip Events Conditions
12:56 AM 66.9 °F 56.8 °F 70% 30.16 in 10.0 mi SE 5.8 mph - N/A   Overcast
1:56 AM 63.9 °F 59.9 °F 87% 30.16 in 10.0 mi ESE 3.5 mph - 0.00 in Rain Light Rain
2:56 AM 64.9 °F 57.9 °F 78% 30.15 in 10.0 mi SE 4.6 mph - 0.00 in   Overcast
3:56 AM 64.9 °F 56.8 °F 75% 30.15 in 10.0 mi ESE 3.5 mph - N/A   Overcast
4:56 AM 64.9 °F 55.9 °F 73% 30.15 in 10.0 mi SSE 6.9 mph - N/A   Overcast
5:56 AM 63.0 °F 59.0 °F 87% 30.16 in 10.0 mi South 3.5 mph - 0.00 in Rain Light Rain
6:27 AM 62.6 °F 59.0 °F 88% 30.18 in 10.0 mi SE 3.5 mph - 0.00 in   Overcast
6:56 AM 63.0 °F 59.0 °F 87% 30.17 in 10.0 mi ESE 4.6 mph - 0.00 in Rain Light Rain
7:56 AM 63.0 °F 59.0 °F 87% 30.18 in 10.0 mi ESE 3.5 mph - 0.00 in   Overcast
8:56 AM 64.9 °F 59.0 °F 81% 30.19 in 10.0 mi ESE 3.5 mph - N/A   Overcast
9:56 AM 68.9 °F 59.0 °F 71% 30.18 in 10.0 mi North - - N/A   Mostly Cloudy
10:56 AM 70.9 °F 59.9 °F 68% 30.17 in 10.0 mi South 6.9 mph - N/A   Mostly Cloudy
11:56 AM 73.9 °F 55.9 °F 53% 30.16 in 10.0 mi SSE 10.4 mph - N/A   Scattered Clouds
12:56 PM 77.0 °F 54.9 °F 46% 30.15 in 10.0 mi SSE 10.4 mph - N/A   Partly Cloudy
1:56 PM 77.0 °F 54.0 °F 45% 30.14 in 10.0 mi SE 8.1 mph - N/A   Partly Cloudy
2:56 PM 79.0 °F 54.9 °F 43% 30.12 in 10.0 mi Variable 4.6 mph - N/A   Partly Cloudy
3:56 PM 79.0 °F 54.0 °F 42% 30.11 in 10.0 mi South 3.5 mph - N/A   Scattered Clouds
4:56 PM 79.0 °F 56.8 °F 46% 30.10 in 10.0 mi South 6.9 mph - N/A   Scattered Clouds
5:56 PM 75.9 °F 59.9 °F 57% 30.11 in 10.0 mi SSE 6.9 mph - N/A   Mostly Cloudy
6:56 PM 74.8 °F 61.0 °F 62% 30.12 in 10.0 mi SE 3.5 mph - N/A   Mostly Cloudy
7:56 PM 72.0 °F 61.0 °F 68% 30.12 in 10.0 mi SE 4.6 mph - N/A   Scattered Clouds
8:56 PM 68.0 °F 61.0 °F 78% 30.13 in 10.0 mi ESE 3.5 mph - N/A   Partly Cloudy
9:56 PM 68.9 °F 59.9 °F 73% 30.13 in 10.0 mi SE 5.8 mph - N/A   Scattered Clouds
10:56 PM 68.0 °F 59.9 °F 75% 30.14 in 10.0 mi SE 4.6 mph - N/A   Clear
11:56 PM 61.9 °F 59.9 °F 93% 30.14 in 10.0 mi Calm Calm - N/A   Clear